Weather History for KMMH - September, 2013

Change the Weather History Date:

Wednesday, September 25, 2013

  Actual Average Record
Temperature  
Mean Temperature 47 °F -  
Max Temperature 59 °F 65 °F 80 °F (1999)
Min Temperature 35 °F 48 °F 33 °F (2010)
Degree Days  
Heating Degree Days 18    
Moisture  
Dew Point 19 °F    
Average Humidity 33    
Maximum Humidity 70    
Minimum Humidity 12    
Precipitation  
Precipitation 0.00 in - - ()
Sea Level Pressure  
Sea Level Pressure 29.82 in    
Wind  
Wind Speed 24 mph (WSW)    
Max Wind Speed 36 mph    
Max Gust Speed 55 mph    
Visibility 10 miles    
Events      
Averages and records for this station are not official NWS values.
T = Trace of Precipitation, MM = Missing Value Source: NWS Daily Summary

Daily Weather History Graph

Daily Weather History Graph

Search for Another Location

Airport or City:

Trip Planner

Search our weather history database for the weather conditions in past years. The results will help you decide how hot, cold, wet, or windy it might be!

Date:

Astronomy

Sep. 25, 2013 Rise Set
Actual Time 6:46 AM PDT 6:47 PM PDT
Civil Twilight 6:19 AM PDT 7:13 PM PDT
Nautical Twilight 5:49 AM PDT 7:43 PM PDT
Astronomical Twilight 5:18 AM PDT 8:14 PM PDT
Moon 11:03 PM PDT (9/25) 12:49 PM PDT (9/25)
Length of Visible Light 12h 53m
Length of Day
12h 01m
Waning Gibbous, 63% of the Moon is Illuminated
Sep 25
Waning Gibbous
Sep 26
Last Quarter
Oct 4
New
Oct 11
First Quarter
Oct 18
Full

Hourly Weather History & Observations

Time (PDT) Temp. Windchill Dew Point Humidity Pressure Visibility Wind Dir Wind Speed Gust Speed Precip Events Conditions
12:15 AM 53.6 °F - 24.8 °F 33% 29.92 in 10.0 mi SW 24.2 mph 43.7 mph N/A   Clear
12:35 AM 53.6 °F - 26.6 °F 35% 29.91 in 10.0 mi SW 28.8 mph 48.3 mph N/A   Clear
12:55 AM 53.6 °F - 24.8 °F 33% 29.91 in 10.0 mi SW 26.5 mph 47.2 mph N/A   Clear
1:15 AM 51.8 °F - 24.8 °F 35% 29.89 in 10.0 mi SW 28.8 mph 46.0 mph N/A   Clear
1:35 AM 51.8 °F - 24.8 °F 35% 29.89 in 10.0 mi WSW 25.3 mph 49.5 mph N/A   Clear
1:55 AM 53.6 °F - 23.0 °F 30% 29.90 in 10.0 mi SW 26.5 mph 46.0 mph N/A   Clear
2:15 AM 51.8 °F - 24.8 °F 35% 29.90 in 10.0 mi WSW 28.8 mph 48.3 mph N/A   Clear
2:35 AM 51.8 °F - 24.8 °F 35% 29.89 in 10.0 mi WSW 29.9 mph 43.7 mph N/A   Clear
2:55 AM 51.8 °F - 26.6 °F 38% 29.88 in 10.0 mi WSW 29.9 mph 47.2 mph N/A   Clear
3:15 AM 51.8 °F - 24.8 °F 35% 29.88 in 10.0 mi WSW 26.5 mph 44.9 mph N/A   Clear
3:35 AM 51.8 °F - 24.8 °F 35% 29.88 in 10.0 mi WSW 27.6 mph 42.6 mph N/A   Clear
3:55 AM 51.8 °F - 24.8 °F 35% 29.87 in 10.0 mi SW 19.6 mph 35.7 mph N/A   Clear
4:15 AM 50.0 °F - 24.8 °F 37% 29.87 in 10.0 mi West 20.7 mph 40.3 mph N/A   Clear
4:35 AM 50.0 °F - 26.6 °F 40% 29.86 in 10.0 mi WSW 23.0 mph 38.0 mph N/A   Scattered Clouds
4:55 AM 50.0 °F - 24.8 °F 37% 29.84 in 10.0 mi SW 20.7 mph 39.1 mph N/A   Clear
5:15 AM 50.0 °F - 23.0 °F 35% 29.82 in 10.0 mi SW 26.5 mph 48.3 mph N/A   Clear
5:35 AM 50.0 °F - 21.2 °F 32% 29.80 in 10.0 mi SW 26.5 mph 46.0 mph N/A   Clear
5:55 AM 50.0 °F - 21.2 °F 32% 29.79 in 10.0 mi SW 32.2 mph 49.5 mph N/A   Clear
6:15 AM 50.0 °F - 17.6 °F 28% 29.79 in 10.0 mi SW 28.8 mph 52.9 mph N/A   Clear
6:35 AM 50.0 °F - 19.4 °F 30% 29.80 in 10.0 mi SW 20.7 mph 39.1 mph N/A   Clear
6:55 AM 48.2 °F - 19.4 °F 32% 29.80 in 10.0 mi SW 10.4 mph 34.5 mph N/A   Clear
7:15 AM 48.2 °F - 19.4 °F 32% 29.79 in 10.0 mi SW 13.8 mph 32.2 mph N/A   Clear
7:35 AM 51.8 °F - 10.4 °F 19% 29.80 in 10.0 mi SSW 26.5 mph 55.2 mph N/A   Clear
7:55 AM 51.8 °F - 12.2 °F 21% 29.79 in 10.0 mi SSW 19.6 mph 40.3 mph N/A   Clear
8:15 AM 51.8 °F - 14.0 °F 22% 29.80 in 10.0 mi SW 23.0 mph 40.3 mph N/A   Clear
8:35 AM 53.6 °F - 8.6 °F 16% 29.79 in 10.0 mi SSW 25.3 mph 46.0 mph N/A   Clear
8:55 AM 53.6 °F - 10.4 °F 18% 29.78 in 10.0 mi South 28.8 mph 42.6 mph N/A   Clear
9:15 AM 53.6 °F - 10.4 °F 18% 29.78 in 10.0 mi South 35.7 mph 52.9 mph N/A   Clear
9:35 AM 53.6 °F - 14.0 °F 21% 29.80 in 10.0 mi SW 18.4 mph 38.0 mph N/A   Clear
9:55 AM 53.6 °F - 14.0 °F 21% 29.81 in 10.0 mi SW 21.9 mph 41.4 mph N/A   Clear
10:15 AM 53.6 °F - 14.0 °F 21% 29.83 in 10.0 mi SW 18.4 mph 47.2 mph N/A   Clear
10:35 AM 55.4 °F - 12.2 °F 18% 29.81 in 10.0 mi South 18.4 mph 43.7 mph N/A   Clear
10:55 AM 55.4 °F - 10.4 °F 17% 29.81 in 10.0 mi SSW 21.9 mph 34.5 mph N/A   Clear
11:15 AM 55.4 °F - 10.4 °F 17% 29.81 in 10.0 mi SSW 24.2 mph 38.0 mph N/A   Clear
11:35 AM 57.2 °F - 6.8 °F 13% 29.82 in 10.0 mi SSW 15.0 mph 38.0 mph N/A   Clear
11:55 AM 57.2 °F - 6.8 °F 13% 29.81 in 10.0 mi SSW 17.3 mph 35.7 mph N/A   Clear
12:15 PM 57.2 °F - 6.8 °F 13% 29.81 in 10.0 mi SW 19.6 mph 33.4 mph N/A   Clear
12:35 PM 57.2 °F - 5.0 °F 12% 29.81 in 10.0 mi WSW 20.7 mph 34.5 mph N/A   Clear
12:55 PM 57.2 °F - 6.8 °F 13% 29.80 in 10.0 mi SW 17.3 mph 29.9 mph N/A   Clear
1:15 PM 59.0 °F - 10.4 °F 15% 29.80 in 10.0 mi SSW 25.3 mph 35.7 mph N/A   Clear
1:35 PM 59.0 °F - 10.4 °F 15% 29.80 in 10.0 mi SW 23.0 mph 29.9 mph N/A   Clear
1:55 PM 57.2 °F - 10.4 °F 16% 29.80 in 10.0 mi SW 20.7 mph 36.8 mph N/A   Clear
2:15 PM 57.2 °F - 10.4 °F 16% 29.79 in 10.0 mi WSW 16.1 mph 27.6 mph N/A   Clear
2:35 PM 57.2 °F - 10.4 °F 16% 29.79 in 10.0 mi SW 15.0 mph 24.2 mph N/A   Clear
2:55 PM 57.2 °F - 6.8 °F 13% 29.79 in 10.0 mi SW 24.2 mph 32.2 mph N/A   Clear
3:15 PM 57.2 °F - 10.4 °F 16% 29.80 in 10.0 mi West 17.3 mph 26.5 mph N/A   Clear
3:35 PM 53.6 °F - 19.4 °F 26% 29.81 in 10.0 mi WNW 27.6 mph 39.1 mph N/A   Clear
3:55 PM 51.8 °F - 19.4 °F 28% 29.81 in 10.0 mi WNW 29.9 mph 40.3 mph N/A   Clear
4:15 PM 51.8 °F - 21.2 °F 30% 29.82 in 10.0 mi WNW 27.6 mph 39.1 mph N/A   Clear
4:35 PM 50.0 °F - 21.2 °F 32% 29.82 in 10.0 mi WNW 29.9 mph 38.0 mph N/A   Clear
4:55 PM 50.0 °F - 21.2 °F 32% 29.82 in 10.0 mi WNW 31.1 mph 39.1 mph N/A   Clear
5:15 PM 48.2 °F - 21.2 °F 34% 29.82 in 10.0 mi WNW 32.2 mph 36.8 mph N/A   Clear
5:35 PM 46.4 °F 37.5 °F 19.4 °F 34% 29.82 in 10.0 mi WNW 27.6 mph 36.8 mph N/A   Clear
5:55 PM 46.4 °F 37.7 °F 19.4 °F 34% 29.82 in 10.0 mi West 26.5 mph 32.2 mph N/A   Clear
6:15 PM 46.4 °F 39.0 °F 19.4 °F 34% 29.81 in 10.0 mi WNW 19.6 mph 27.6 mph N/A   Clear
6:35 PM 42.8 °F 34.8 °F 19.4 °F 39% 29.81 in 10.0 mi WNW 17.3 mph 28.8 mph N/A   Clear
6:55 PM 42.8 °F 35.1 °F 21.2 °F 42% 29.81 in 10.0 mi WNW 16.1 mph 25.3 mph N/A   Clear
7:15 PM 41.0 °F 32.8 °F 23.0 °F 49% 29.81 in 10.0 mi NW 16.1 mph - N/A   Clear
7:35 PM 41.0 °F 32.8 °F 24.8 °F 53% 29.81 in 10.0 mi WNW 16.1 mph 23.0 mph N/A   Clear
7:55 PM 39.2 °F 30.5 °F 24.8 °F 56% 29.80 in 10.0 mi NW 16.1 mph 26.5 mph N/A   Clear
8:15 PM 39.2 °F 29.3 °F 24.8 °F 56% 29.79 in 10.0 mi WNW 20.7 mph 27.6 mph N/A   Clear
8:35 PM 39.2 °F 29.6 °F 23.0 °F 52% 29.79 in 10.0 mi WNW 19.6 mph 31.1 mph N/A   Clear
8:55 PM 39.2 °F 29.0 °F 24.8 °F 56% 29.79 in 10.0 mi WNW 21.9 mph 29.9 mph N/A   Clear
9:15 PM 39.2 °F 30.2 °F 24.8 °F 56% 29.79 in 10.0 mi WNW 17.3 mph 33.4 mph N/A   Clear
9:35 PM 39.2 °F 28.5 °F 26.6 °F 61% 29.79 in 10.0 mi WNW 24.2 mph 32.2 mph N/A   Clear
9:55 PM 39.2 °F 28.5 °F 26.6 °F 61% 29.79 in 10.0 mi WNW 24.2 mph 32.2 mph N/A   Clear
10:15 PM 37.4 °F 26.4 °F 23.0 °F 56% 29.80 in 10.0 mi NW 23.0 mph 29.9 mph N/A   Clear
10:35 PM 35.6 °F 25.5 °F 24.8 °F 65% 29.81 in 10.0 mi NW 17.3 mph 26.5 mph N/A   Clear
10:55 PM 35.6 °F 27.1 °F 24.8 °F 65% 29.83 in 10.0 mi West 12.7 mph 19.6 mph N/A   Scattered Clouds
11:15 PM 35.6 °F 27.1 °F 24.8 °F 65% 29.83 in 10.0 mi West 12.7 mph 16.1 mph N/A   Scattered Clouds
11:35 PM 35.6 °F 25.9 °F 24.8 °F 65% 29.83 in 10.0 mi West 16.1 mph - N/A   Scattered Clouds
11:55 PM 35.6 °F 25.5 °F 26.6 °F 70% 29.83 in 10.0 mi WNW 17.3 mph - N/A   Scattered Clouds